Regional Weather Roundup
Issued by NWS Cleveland, OH

Home | Current Version | Previous Version | Text Only | Print | Product List | Glossary On
Versions: 1 2 3 4 5 6 7 8 9 10 11 12 13 14 15 16 17 18 19 20 21 22 23 24 25 26 27 28 29 30 31 32 33 34 35 36 37 38 39 40 41 42 43 44 45 46 47 48 49 50
000
ASUS41 KCLE 260912
RWRCLE
OHIO REGIONAL WEATHER ROUNDUP
NATIONAL WEATHER SERVICE WILMINGTON, OH
500 AM EDT SAT MAY 26 2018

NOTE: "FAIR" INDICATES FEW OR NO CLOUDS BELOW 12,000 FEET WITH NO
SIGNIFICANT WEATHER AND/OR OBSTRUCTIONS TO VISIBILITY.

OHZ001>008-015>018-024>027-034-035-043-044-261000-
   NORTHWEST OHIO

CITY           SKY/WX    TMP DP  RH WIND       PRES   REMARKS
DEFIANCE       FAIR      68  59  73 S5        29.79F
FINDLAY        FAIR      68  58  70 S7        29.80F
TOLEDO EXPRESS FAIR      65  59  81 SW3       29.78F
TOLEDO EXEC    FAIR      68  56  65 SW6       29.79F
LIMA           FAIR      69  59  70 S5        29.82F
$$

OHZ009>014-019>023-028>033-038-089-261000-
   NORTHEAST OHIO

CITY           SKY/WX    TMP DP  RH WIND       PRES   REMARKS
CLE-HOPKINS    FAIR      68  54  60 S7        29.83F
CLE-LAKEFRONT  FAIR      71  52  50 S9        29.80F
CUY CO. ARPT   NOT AVBL
LORAIN-ELYRIA  FAIR      61  50  67 S5        29.82F
ASHTABULA      FAIR      60  55  83 CALM      29.84S
AKRON-CANTON   FAIR      64  55  72 S5        29.86S
WOOSTER        FAIR      59  56  89 CALM      29.86S
MANSFIELD      FAIR      64  55  72 S6        29.85F
YOUNGSTOWN     FAIR      66  57  72 S6        29.85S
$$

OHZ042-051>053-060>062-070>072-077>081-261000-
  SOUTHWEST OHIO

CITY           SKY/WX    TMP DP  RH WIND       PRES   REMARKS
CINC-COVINGTON FAIR      69  60  73 SW6       29.85S
CINC-LUNKEN    CLOUDY    65  65 100 CALM      29.85S
HAMILTON       MOCLDY    66  65  96 CALM      29.86R
DAYTON         CLOUDY    71  61  70 S6        29.86S
WRIGHT-PAT AFB CLOUDY    67  60  75 S3        29.85S
DAYTON GENERAL FAIR      70  59  68 S3        29.85S
WILMINGTON     MOCLDY    66  61  84 CALM      29.86S
$$

OHZ036-037-039>041-045>050-054>059-063>069-073>076-082>088-261000-
  CENTRAL AND SOUTHEAST OHIO

CITY           SKY/WX    TMP DP  RH WIND       PRES   REMARKS
COLUMBUS       FAIR      65  59  81 CALM      29.85S
OSU AIRPORT    FAIR      65  57  75 SE3       29.85S
BOLTON FIELD   FAIR      63  58  86 CALM      29.86F FOG
RICKENBACK AFB FAIR      64  60  86 MISG      29.85S
NEWARK         FAIR      59  58  96 CALM      29.86S
MARION         FAIR      63  56  78 S6        29.84F
LANCASTER      FAIR      63  61  93 S3        29.86F
ZANESVILLE     FAIR      64  61  90 CALM      29.87S
NEW PHILLY     FAIR      61  60  97 SE3       29.87S
$$




USA.gov is the U.S. government's official web portal to all federal, state and local government web resources and services.